Location: Cz?stochówka
(50.8142°N, 19.0915°E)
Time: 14:51:25
(UTC+00:00)

Cosmos 2366 rocket - Pass Details

Date: 17 April 2026
Orbit: 954 x 996 km, 82.9° (Epoch: 16 May)

Event Time Altitude Azimuth Distance (km) Brightness Sun altitude
Rises 18:39:01 0° 179° (S) 3,635 6.7 -9.0°
Reaches altitude 10° 18:41:31 10° 178° (S) 2,689 6.0 -9.4°
Maximum altitude 18:47:37 71° 96° (E) 1,012 3.9 -10.2°
Drops below altitude 10° 18:53:44 10° 13° (NNE) 2,695 6.6 -11.0°
Sets 18:56:15 0° 12° (NNE) 3,645 7.3 -11.4°
